When you browse on this site, cookies collect data to enhance your experience and personalize the content and advertising you see.
Visit our Privacy Policy to learn more. By continuing to use the site, you agree to this use of cookies and data.
  • In Portugal
  • List of Countries
  • For 7 days
  • Water Temperature
  • Weather Map
  • Weather Widgets
  • user-avatar
    Login

    Hourly Weather Lenevka

    Today, 3 June, Wednesday

    Time Temperature Precipitation Wind Pressure Humidity
    00:00 +6°C° 0 mm 0 mps 742 mmHg 79%
    01:00 +7°C° 0 mm 1 mps 742 mmHg 81%
    02:00 +6°C° 0 mm 1 mps 742 mmHg 82%
    03:00 +6°C° 0 mm 1 mps 743 mmHg 84%
    04:00 +6°C° 0 mm 1 mps 743 mmHg 85%
    05:00 +8°C° 0 mm 1 mps 743 mmHg 76%
    06:00 +10°C° 0 mm 1 mps 743 mmHg 66%
    07:00 +12°C° 0 mm 2 mps 743 mmHg 57%
    08:00 +13°C° 0 mm 2 mps 743 mmHg 52%
    09:00 +14°C° 0 mm 2 mps 743 mmHg 47%
    10:00 +15°C° 0 mm 2 mps 743 mmHg 43%
    11:00 +16°C° 0 mm 2 mps 742 mmHg 41%
    12:00 +16°C° 0 mm 2 mps 742 mmHg 40%
    13:00 +17°C° 0 mm 2 mps 742 mmHg 38%
    14:00 +17°C° 0 mm 2 mps 742 mmHg 38%
    15:00 +17°C° 0 mm 2 mps 742 mmHg 38%
    16:00 +17°C° 0 mm 2 mps 742 mmHg 38%
    17:00 +16°C° 0 mm 2 mps 742 mmHg 45%
    18:00 +16°C° 0 mm 1 mps 742 mmHg 51%
    19:00 +15°C° 0 mm 1 mps 742 mmHg 58%
    20:00 +13°C° 0 mm 1 mps 742 mmHg 62%
    21:00 +11°C° 0 mm 1 mps 743 mmHg 67%
    22:00 +9°C° 0 mm 1 mps 743 mmHg 71%
    23:00 +7°C° 0 mm 0 mps 743 mmHg 73%

    Tomorrow, 4 June, Thursday

    Time Temperature Precipitation Wind Pressure Humidity
    00:00 +6°C° 0 mm 0 mps 743 mmHg 76%
    01:00 +5°C° 0 mm 0 mps 743 mmHg 78%
    02:00 +5°C° 0 mm 0 mps 744 mmHg 78%
    03:00 +6°C° 0 mm 1 mps 744 mmHg 78%
    04:00 +6°C° 0 mm 1 mps 745 mmHg 78%
    05:00 +8°C° 0 mm 1 mps 745 mmHg 71%
    06:00 +10°C° 0 mm 1 mps 745 mmHg 65%
    07:00 +12°C° 0 mm 2 mps 745 mmHg 59%
    08:00 +14°C° 0 mm 2 mps 745 mmHg 53%
    09:00 +15°C° 0 mm 2 mps 745 mmHg 47%
    10:00 +16°C° 0 mm 2 mps 745 mmHg 41%
    11:00 +17°C° 0 mm 2 mps 745 mmHg 39%
    12:00 +18°C° 0 mm 2 mps 745 mmHg 37%
    13:00 +19°C° 0 mm 2 mps 745 mmHg 35%
    14:00 +19°C° 0 mm 2 mps 745 mmHg 35%
    15:00 +19°C° 0 mm 2 mps 745 mmHg 35%
    16:00 +19°C° 0 mm 2 mps 745 mmHg 35%
    17:00 +18°C° 0 mm 2 mps 744 mmHg 43%
    18:00 +17°C° 0 mm 2 mps 744 mmHg 50%
    19:00 +16°C° 0 mm 1 mps 744 mmHg 57%
    20:00 +14°C° 0 mm 1 mps 745 mmHg 62%
    21:00 +12°C° 0 mm 1 mps 745 mmHg 67%
    22:00 +9°C° 0 mm 1 mps 746 mmHg 72%
    23:00 +9°C° 0 mm 1 mps 746 mmHg 73%

    Day after tomorrow, 5 June, Friday

    Time Temperature Precipitation Wind Pressure Humidity
    00:00 +8°C° 0 mm 1 mps 746 mmHg 74%
    01:00 +8°C° 0 mm 1 mps 746 mmHg 74%
    02:00 +8°C° 0 mm 1 mps 746 mmHg 76%
    03:00 +7°C° 0 mm 1 mps 746 mmHg 78%
    04:00 +6°C° 0 mm 0 mps 747 mmHg 80%
    05:00 +9°C° 0 mm 0 mps 747 mmHg 73%
    06:00 +12°C° 0 mm 0 mps 747 mmHg 65%
    07:00 +14°C° 0 mm 0 mps 747 mmHg 58%
    08:00 +18°C° 0 mm 1 mps 747 mmHg 51%
    09:00 +19°C° 0 mm 1 mps 747 mmHg 45%
    10:00 +19°C° 0 mm 2 mps 747 mmHg 38%
    11:00 +19°C° 0 mm 2 mps 747 mmHg 37%
    12:00 +20°C° 0 mm 2 mps 747 mmHg 36%
    13:00 +21°C° 0 mm 2 mps 747 mmHg 34%
    14:00 +21°C° 0 mm 2 mps 747 mmHg 35%
    15:00 +21°C° 0 mm 2 mps 746 mmHg 36%
    16:00 +21°C° 0 mm 2 mps 746 mmHg 37%
    17:00 +20°C° 0 mm 2 mps 746 mmHg 44%
    18:00 +20°C° 0 mm 1 mps 746 mmHg 51%
    19:00 +19°C° 0 mm 1 mps 746 mmHg 57%
    20:00 +16°C° 0 mm 1 mps 746 mmHg 62%
    21:00 +14°C° 0 mm 1 mps 747 mmHg 66%
    22:00 +12°C° 0 mm 1 mps 747 mmHg 70%
    23:00 +11°C° 0 mm 1 mps 747 mmHg 72%

    6 June, Saturday

    Time Temperature Precipitation Wind Pressure Humidity
    00:00 +10°C° 0 mm 1 mps 747 mmHg 74%
    01:00 +10°C° 0 mm 1 mps 747 mmHg 76%
    02:00 +10°C° 0 mm 1 mps 748 mmHg 78%
    03:00 +9°C° 0 mm 1 mps 748 mmHg 80%
    04:00 +9°C° 0 mm 1 mps 748 mmHg 81%
    05:00 +12°C° 0 mm 1 mps 748 mmHg 73%
    06:00 +14°C° 0 mm 1 mps 748 mmHg 65%
    07:00 +18°C° 0 mm 1 mps 748 mmHg 57%
    08:00 +19°C° 0 mm 1 mps 748 mmHg 51%
    09:00 +19°C° 0 mm 2 mps 748 mmHg 45%
    10:00 +20°C° 0 mm 2 mps 748 mmHg 39%
    11:00 +21°C° 0 mm 2 mps 748 mmHg 37%
    12:00 +23°C° 0 mm 2 mps 748 mmHg 35%
    13:00 +24°C° 0 mm 2 mps 748 mmHg 33%
    14:00 +24°C° 0 mm 2 mps 748 mmHg 33%
    15:00 +24°C° 0 mm 2 mps 747 mmHg 33%
    16:00 +24°C° 0 mm 2 mps 747 mmHg 34%
    17:00 +23°C° 0 mm 1 mps 747 mmHg 41%
    18:00 +22°C° 0 mm 1 mps 747 mmHg 49%
    19:00 +21°C° 0 mm 1 mps 747 mmHg 56%
    20:00 +19°C° 0 mm 1 mps 747 mmHg 61%
    21:00 +16°C° 0 mm 2 mps 747 mmHg 66%
    22:00 +14°C° 0 mm 2 mps 747 mmHg 71%
    23:00 +13°C° 0 mm 2 mps 747 mmHg 74%

    7 June, Sunday

    Time Temperature Precipitation Wind Pressure Humidity
    00:00 +13°C° 0 mm 2 mps 747 mmHg 76%
    01:00 +12°C° 0 mm 1 mps 748 mmHg 78%
    02:00 +12°C° 0 mm 1 mps 748 mmHg 80%
    03:00 +12°C° 0 mm 1 mps 748 mmHg 81%
    04:00 +11°C° 0 mm 1 mps 748 mmHg 83%
    05:00 +14°C° 0 mm 1 mps 748 mmHg 75%
    06:00 +16°C° 0 mm 1 mps 748 mmHg 67%
    07:00 +18°C° 0 mm 0 mps 749 mmHg 59%
    08:00 +20°C° 0 mm 0 mps 749 mmHg 53%
    09:00 +21°C° 0 mm 0 mps 748 mmHg 48%
    10:00 +23°C° 0 mm 0 mps 748 mmHg 42%
    11:00 +26°C° 0 mm 1 mps 748 mmHg 39%
    12:00 +26°C° 0 mm 1 mps 748 mmHg 37%
    13:00 +26°C° 0 mm 2 mps 748 mmHg 34%
    14:00 +26°C° 0 mm 2 mps 748 mmHg 34%
    15:00 +26°C° 0 mm 2 mps 748 mmHg 35%
    16:00 +26°C° 0 mm 2 mps 747 mmHg 35%
    17:00 +25°C° 0 mm 2 mps 747 mmHg 43%
    18:00 +24°C° 0 mm 2 mps 747 mmHg 50%
    19:00 +21°C° 0 mm 2 mps 747 mmHg 58%
    20:00 +19°C° 0 mm 2 mps 747 mmHg 64%
    21:00 +17°C° 0 mm 2 mps 747 mmHg 69%
    22:00 +15°C° 0 mm 1 mps 747 mmHg 75%
    23:00 +14°C° 0 mm 1 mps 747 mmHg 76%

    8 June, Monday

    Time Temperature Precipitation Wind Pressure Humidity
    00:00 +14°C° 0 mm 2 mps 748 mmHg 76%
    01:00 +13°C° 0 mm 2 mps 748 mmHg 77%
    02:00 +13°C° 0 mm 2 mps 748 mmHg 79%
    03:00 +13°C° 0 mm 2 mps 748 mmHg 80%
    04:00 +13°C° 0 mm 2 mps 748 mmHg 82%
    05:00 +15°C° 0 mm 2 mps 748 mmHg 75%
    06:00 +17°C° 0 mm 3 mps 748 mmHg 68%
    07:00 +19°C° 0 mm 3 mps 748 mmHg 62%
    08:00 +20°C° 0 mm 3 mps 748 mmHg 58%
    09:00 +22°C° 0 mm 4 mps 748 mmHg 53%
    10:00 +23°C° 0 mm 4 mps 748 mmHg 49%
    11:00 +25°C° 0 mm 4 mps 747 mmHg 47%
    12:00 +26°C° 0 mm 4 mps 747 mmHg 46%
    13:00 +27°C° 0 mm 4 mps 747 mmHg 44%
    14:00 +27°C° 0 mm 4 mps 747 mmHg 45%
    15:00 +27°C° 0 mm 4 mps 747 mmHg 46%
    16:00 +27°C° 0 mm 4 mps 746 mmHg 47%
    17:00 +26°C° 0 mm 4 mps 746 mmHg 54%
    18:00 +25°C° 0 mm 3 mps 746 mmHg 60%
    19:00 +24°C° 0 mm 2 mps 746 mmHg 67%
    20:00 +21°C° 0 mm 2 mps 746 mmHg 72%
    21:00 +20°C° 0 mm 2 mps 746 mmHg 77%
    22:00 +18°C° 0 mm 3 mps 746 mmHg 81%
    23:00 +18°C° 0 mm 2 mps 746 mmHg 83%
    Show more